Regional Weather Roundup
Issued by NWS

Home | Current Version | Previous Version | Text Only | Print | Product List | Glossary On
Versions: 1 2 3 4 5 6 7 8 9 10 11 12 13 14 15 16 17 18 19 20 21 22 23 24 25 26 27 28 29 30 31 32 33 34 35 36 37 38 39 40 41 42 43 44 45 46 47 48 49 50
000
ASUS43 KTOP 160308
RWRKS

WEATHER ROUNDUP FOR KANSAS
NATIONAL WEATHER SERVICE GOODLAND KS
900 PM CST SUN JAN 15 2017

NOTE:  "FAIR" INDICATES FEW OR NO CLOUDS BELOW 12,000 FEET WITH NO
SIGNIFICANT WEATHER AND/OR OBSTRUCTIONS TO VISIBILITY.

KSZ001>006-013>018-027>032-041>047-160400-
NORTHWEST KANSAS

CITY           SKY/WX    TMP DP  RH WIND       PRES   REMARKS
GOODLAND       CLOUDY    30  29  96 E6        29.98F
HAYS           CLOUDY    30  29  96 NE8       30.07R
HILL CITY      CLOUDY    30  30 100 E6        30.06F FOG
RUSSELL        CLOUDY    30  29  96 NE6       30.06R FOG
$$

KSZ061>065-074>080-084>089-160400-
SOUTHWEST KANSAS

CITY           SKY/WX    TMP DP  RH WIND       PRES   REMARKS
DODGE CITY     MIX PCPN  31  30  96 NE15      29.97F FOG     WCI  20
ELKHART          N/A     29  24  82 N7          N/A
GARDEN CITY    FRZ RAIN  31  29  92 NE16      29.94F WCI  20
GREAT BEND     MIX PCPN  31  30  96 N8        30.05F FOG
LIBERAL        CLOUDY    34  28  80 CALM      29.91F
PRATT          MIX PCPN  29  29  99 CALM      30.02F
$$

KSZ066>073-081>083-090>101-160400-
SOUTHEAST KANSAS

CITY           SKY/WX    TMP DP  RH WIND       PRES   REMARKS
CHANUTE        CLOUDY    38  37  97 NE7       30.07F FOG
HUTCHINSON     FRZ RAIN  33  32  96 NE9       30.03F FOG
MEDICINE LODGE   N/A     32  31  96 N7        30.01S
NEWTON         MIX PCPN N/A N/A N/A NE9       30.04F
PARSONS        LGT RAIN  40  40 100 VRB6      30.06F FOG
WICHITA INTL   RAIN      34  34 100 NE13      30.01F FOG     WCI  25
WICHITA JABRA  CLOUDY    33  33 100 NE9       30.03F FOG
WICHITA MCCONL LGT RAIN  34  33  98 NE10      30.01F FOG     WCI  26
WINFIELD       CLOUDY    38  38 100 E8        30.00F
$$

KSZ007>012-019>026-033>040-048>060-102>105-160400-
NORTHEAST KANSAS

CITY           SKY/WX    TMP DP  RH WIND       PRES   REMARKS
CONCORDIA      CLOUDY    31  31 100 E8        30.09F
EMPORIA        CLOUDY    33  33 100 E10       30.07F FOG     WCI  25
LAWRENCE       MIX PCPN  32  32 100 E6        30.14F FOG
MANHATTAN      CLOUDY    33  31  92 E8        30.12S
MARYSVILLE     LGT RAIN  32  32 100 E5        30.11F
OLATHE IND     CLOUDY    33  33 100 E7        30.12F FOG
OLATHE EXE     FOG       32  32 100 E8        30.12F VSB 1
SALINA         CLOUDY    32  30  92 NE8       30.09F FOG
TOPEKA BILLARD CLOUDY    33  30  88 E7        30.13S
TOPEKA FORBES  CLOUDY    34  32  92 E7        30.12F
$$



USA.gov is the U.S. government's official web portal to all federal, state and local government web resources and services.